Regional Weather Roundup
Issued by NWS Burlington, VT

Home | Current Version | Previous Version | Text Only | Print | Product List | Glossary On
Versions: 1 2 3 4 5 6 7 8 9 10 11 12 13 14 15 16 17 18 19 20 21 22 23 24 25 26 27 28 29 30 31 32 33 34 35 36 37 38 39 40 41 42 43 44 45 46 47 48 49 50
000
ASUS41 KBTV 220230
RWRBTV
VERMONT REGIONAL WEATHER ROUNDUP
NATIONAL WEATHER SERVICE BURLINGTON VT
1000 PM EDT FRI JUL 21 2017

NOTE: "FAIR" INDICATES FEW OR NO CLOUDS BELOW 12,000 FEET WITH NO
SIGNIFICANT WEATHER AND/OR OBSTRUCTIONS TO VISIBILITY.

* THESE REPORTS ARE NOT UNDER NWS QUALITY CONTROL AND/OR DO NOT
  REPORT WEATHER SUCH AS PRECIPITATION AND FOG.

VTZ001>019-220300-
_____VERMONT_____


CITY           SKY/WX    TMP DP  RH WIND       PRES   REMARKS
BURLINGTON     FAIR      73  65  75 SW5       29.84R
MONTPELIER     CLOUDY    68  62  81 NW3       29.91R
MORRISVILLE    FAIR      73  60  63 W6        29.86R
ST. JOHNSBURY*   N/A     74  65  73 MISG      29.82R
LYNDONVILLE*   FAIR      71  59  66 CALM      29.87S
MIDDLEBURY*    MOCLDY    71  63  75 CALM      29.86R
RUTLAND*       FAIR      75  56  51 VRB5      29.87R
SPRINGFIELD    FAIR      69  63  81 W5        29.85R
HIGHGATE*      FAIR      73  63  71 CALM      29.82F
NEWPORT*       MOCLDY    71  61  72 W3        29.85S
BENNINGTON     FAIR      72  60  66 SW9       29.89R
ISLAND POND*     N/A     64 N/A N/A NW2         N/A
GALLUP MILLS*    N/A     63 N/A N/A MISG        N/A
UNION VILLAGE*   N/A     66 N/A N/A MISG        N/A
MT. MANSFIELD*   N/A     59 N/A N/A W26         N/A

_____LAKE CHAMPLAIN_____


CITY           SKY/WX    TMP DP  RH WIND       PRES   REMARKS
BURTON ISLAND*   N/A     75  68  78 W7          N/A
COLCHESTER RF*   N/A     73  66  78 W14         N/A
DIAMOND ISL*     N/A     75  63  64 W7          N/A

$$

NYZ007-026>031-035-052-083-087-220300-
_____NORTHERN NEW YORK_____


CITY           SKY/WX    TMP DP  RH WIND       PRES   REMARKS
PLATTSBURGH    FAIR      72  64  76 VRB3      29.83R
SARANAC LAKE   FAIR      68  61  78 SW5       29.91R
MASSENA        FAIR      69  66  90 SW3       29.85R
OGDENSBURG*    FAIR      68  65  90 S5        29.85S
POTSDAM*       CLEAR     68  66  94 S3        29.86F
STARK FALLS*     N/A     68 N/A N/A SW2         N/A
WATERTOWN      FAIR      71  66  84 SW5       29.87S
FT DRUM        FAIR      72  61  69 SW8       29.87S
ALBANY         FAIR      75  63  66 NW7       29.88R
GLENS FALLS    FAIR      68  61  78 N5        29.86R

$$
NHZ002-005-011-220300-
_____NEW HAMPSHIRE_____


CITY           SKY/WX    TMP DP  RH WIND       PRES   REMARKS
LEBANON        FAIR      67  62  84 S3        29.83R
KEENE          FAIR      71  62  73 CALM      29.85R
MT WASHINGTON  FOG       52  52 100 NW59G69     N/A  VSB 1/16
PLYMOUTH       CLOUDY    71  64  80 CALM      29.81R
WHITEFIELD     CLOUDY    69  64  84 CALM      29.85R

$$

_____REGIONAL QUEBEC LOCATIONS_____


CITY           SKY/WX    TMP DP  RH WIND       PRES   REMARKS
MONTREAL       PTCLDY    73  61  64 W8        29.80R
QUEBEC CITY    MOCLDY    68  55  64 NE9       29.78R
SHERBROOKE     CLEAR     64  61  88 VRB2      29.81R

_____REGIONAL ONTARIO LOCATIONS_____


CITY           SKY/WX    TMP DP  RH WIND       PRES   REMARKS
OTTAWA         MOCLDY    72  59  64 W5        29.84S

______KEY______
VSB  - VISIBILITY IN MILES
WCI  - WIND CHILL INDEX
HX   - HEAT INDEX
$$
NNNN




USA.gov is the U.S. government's official web portal to all federal, state and local government web resources and services.